• In Deutschland
  • Länderverzeichnis
  • Für 7 Tage
  • Wassertemperatur
  • Satellitenkarten
  • Wetterkarte
  • Widgets
  • user-avatar
    Anmelden

    Stündliche Wetter Norden

    Heute, 22 September, Samstag

    Zeit Temperatur Niederschläge Wind Luftdruck Luftfeuchtigkeit
    00:00 +10°C° 0 mm 7 m/S 757 mmHg 82%
    01:00 +10°C° 0.3 mm 7 m/S 758 mmHg 82%
    02:00 +10°C° 0.3 mm 8 m/S 758 mmHg 82%
    03:00 +10°C° 0.3 mm 8 m/S 759 mmHg 82%
    04:00 +10°C° 0.2 mm 8 m/S 759 mmHg 82%
    05:00 +10°C° 0.2 mm 9 m/S 760 mmHg 83%
    06:00 +10°C° 0.2 mm 9 m/S 760 mmHg 83%
    07:00 +11°C° 0.1 mm 9 m/S 760 mmHg 78%
    08:00 +12°C° 0.1 mm 10 m/S 760 mmHg 72%
    09:00 +13°C° 0.1 mm 10 m/S 761 mmHg 67%
    10:00 +14°C° 0.2 mm 10 m/S 761 mmHg 66%
    11:00 +14°C° 0.2 mm 10 m/S 761 mmHg 64%
    12:00 +14°C° 0.2 mm 10 m/S 761 mmHg 63%
    13:00 +15°C° 0.1 mm 9 m/S 761 mmHg 64%
    14:00 +13°C° 0.1 mm 9 m/S 761 mmHg 64%
    15:00 +13°C° 0.1 mm 9 m/S 761 mmHg 65%
    16:00 +12°C° 0 mm 8 m/S 761 mmHg 67%
    17:00 +12°C° 0 mm 7 m/S 761 mmHg 69%
    18:00 +11°C° 0 mm 7 m/S 761 mmHg 71%
    19:00 +10°C° 0 mm 6 m/S 761 mmHg 73%
    20:00 +10°C° 0 mm 6 m/S 761 mmHg 76%
    21:00 +9°C° 0 mm 6 m/S 761 mmHg 79%
    22:00 +9°C° 0 mm 6 m/S 761 mmHg 80%
    23:00 +9°C° 0 mm 5 m/S 761 mmHg 81%

    Morgen, 23 September, Sonntag

    Zeit Temperatur Niederschläge Wind Luftdruck Luftfeuchtigkeit
    00:00 +9°C° 0 mm 5 m/S 761 mmHg 83%
    01:00 +9°C° 0 mm 5 m/S 761 mmHg 84%
    02:00 +10°C° 0 mm 4 m/S 760 mmHg 84%
    03:00 +10°C° 0 mm 4 m/S 760 mmHg 85%
    04:00 +10°C° 0 mm 4 m/S 760 mmHg 85%
    05:00 +10°C° 0 mm 3 m/S 760 mmHg 84%
    06:00 +11°C° 0 mm 3 m/S 760 mmHg 84%
    07:00 +11°C° 0 mm 3 m/S 760 mmHg 80%
    08:00 +12°C° 0 mm 3 m/S 760 mmHg 76%
    09:00 +13°C° 0 mm 3 m/S 760 mmHg 73%
    10:00 +13°C° 0.1 mm 3 m/S 760 mmHg 70%
    11:00 +13°C° 0.1 mm 3 m/S 759 mmHg 67%
    12:00 +14°C° 0.1 mm 3 m/S 759 mmHg 64%
    13:00 +13°C° 0.4 mm 4 m/S 759 mmHg 69%
    14:00 +13°C° 0.4 mm 5 m/S 759 mmHg 73%
    15:00 +11°C° 0.4 mm 6 m/S 759 mmHg 78%
    16:00 +11°C° 0.3 mm 7 m/S 759 mmHg 78%
    17:00 +10°C° 0.3 mm 8 m/S 760 mmHg 78%
    18:00 +10°C° 0.3 mm 8 m/S 760 mmHg 78%
    19:00 +10°C° 0.1 mm 9 m/S 761 mmHg 76%
    20:00 +10°C° 0.1 mm 9 m/S 762 mmHg 74%
    21:00 +9°C° 0.1 mm 10 m/S 763 mmHg 73%
    22:00 +9°C° 0.1 mm 10 m/S 764 mmHg 72%
    23:00 +8°C° 0.1 mm 10 m/S 765 mmHg 71%

    übermorgen, 24 September, Montag

    Zeit Temperatur Niederschläge Wind Luftdruck Luftfeuchtigkeit
    00:00 +8°C° 0.1 mm 10 m/S 766 mmHg 71%
    01:00 +8°C° 0.1 mm 10 m/S 767 mmHg 70%
    02:00 +8°C° 0.1 mm 10 m/S 767 mmHg 69%
    03:00 +8°C° 0.1 mm 10 m/S 768 mmHg 68%
    04:00 +8°C° 0.1 mm 10 m/S 769 mmHg 68%
    05:00 +8°C° 0.1 mm 10 m/S 770 mmHg 68%
    06:00 +8°C° 0.1 mm 9 m/S 770 mmHg 68%
    07:00 +10°C° 0.3 mm 9 m/S 771 mmHg 67%
    08:00 +9°C° 0.3 mm 10 m/S 771 mmHg 66%
    09:00 +11°C° 0.3 mm 10 m/S 772 mmHg 65%
    10:00 +12°C° 0.2 mm 10 m/S 772 mmHg 63%
    11:00 +12°C° 0.2 mm 9 m/S 773 mmHg 60%
    12:00 +12°C° 0.2 mm 9 m/S 773 mmHg 58%
    13:00 +12°C° 0 mm 9 m/S 774 mmHg 57%
    14:00 +12°C° 0 mm 8 m/S 774 mmHg 56%
    15:00 +12°C° 0 mm 8 m/S 774 mmHg 55%
    16:00 +11°C° 0 mm 8 m/S 774 mmHg 59%
    17:00 +10°C° 0 mm 7 m/S 775 mmHg 63%
    18:00 +9°C° 0 mm 7 m/S 775 mmHg 67%
    19:00 +9°C° 0 mm 6 m/S 775 mmHg 69%
    20:00 +9°C° 0 mm 6 m/S 776 mmHg 71%
    21:00 +8°C° 0 mm 5 m/S 776 mmHg 73%
    22:00 +8°C° 0.1 mm 5 m/S 777 mmHg 73%
    23:00 +8°C° 0.1 mm 4 m/S 777 mmHg 73%

    25 September, Dienstag

    Zeit Temperatur Niederschläge Wind Luftdruck Luftfeuchtigkeit
    00:00 +8°C° 0.1 mm 4 m/S 777 mmHg 74%
    01:00 +8°C° 0.1 mm 4 m/S 777 mmHg 74%
    02:00 +9°C° 0.1 mm 3 m/S 777 mmHg 74%
    03:00 +9°C° 0.1 mm 3 m/S 778 mmHg 74%
    04:00 +9°C° 0.1 mm 3 m/S 778 mmHg 75%
    05:00 +9°C° 0.1 mm 3 m/S 778 mmHg 76%
    06:00 +9°C° 0.1 mm 3 m/S 778 mmHg 77%
    07:00 +11°C° 0 mm 3 m/S 778 mmHg 72%
    08:00 +12°C° 0 mm 3 m/S 778 mmHg 66%
    09:00 +13°C° 0 mm 3 m/S 779 mmHg 61%
    10:00 +14°C° 0 mm 3 m/S 779 mmHg 59%
    11:00 +14°C° 0 mm 3 m/S 778 mmHg 57%
    12:00 +14°C° 0 mm 3 m/S 778 mmHg 55%
    13:00 +14°C° 0 mm 3 m/S 778 mmHg 55%
    14:00 +14°C° 0 mm 3 m/S 778 mmHg 56%
    15:00 +14°C° 0 mm 3 m/S 777 mmHg 57%
    16:00 +13°C° 0 mm 3 m/S 777 mmHg 62%
    17:00 +12°C° 0 mm 3 m/S 777 mmHg 67%
    18:00 +10°C° 0 mm 3 m/S 777 mmHg 72%
    19:00 +10°C° 0 mm 3 m/S 776 mmHg 73%
    20:00 +8°C° 0 mm 4 m/S 776 mmHg 74%
    21:00 +8°C° 0 mm 4 m/S 776 mmHg 76%
    22:00 +8°C° 0 mm 5 m/S 776 mmHg 77%
    23:00 +7°C° 0 mm 5 m/S 775 mmHg 77%

    26 September, Mittwoch

    Zeit Temperatur Niederschläge Wind Luftdruck Luftfeuchtigkeit
    00:00 +7°C° 0 mm 6 m/S 775 mmHg 78%
    01:00 +7°C° 0 mm 6 m/S 774 mmHg 78%
    02:00 +7°C° 0 mm 6 m/S 774 mmHg 78%
    03:00 +6°C° 0 mm 7 m/S 773 mmHg 78%
    04:00 +6°C° 0 mm 7 m/S 773 mmHg 77%
    05:00 +6°C° 0 mm 7 m/S 773 mmHg 76%
    06:00 +6°C° 0 mm 8 m/S 772 mmHg 75%
    07:00 +9°C° 0 mm 8 m/S 772 mmHg 70%
    08:00 +10°C° 0 mm 9 m/S 772 mmHg 65%
    09:00 +12°C° 0 mm 9 m/S 772 mmHg 59%
    10:00 +13°C° 0 mm 9 m/S 771 mmHg 59%
    11:00 +15°C° 0 mm 9 m/S 771 mmHg 58%
    12:00 +16°C° 0 mm 9 m/S 771 mmHg 57%
    13:00 +16°C° 0 mm 9 m/S 770 mmHg 58%
    14:00 +16°C° 0 mm 9 m/S 770 mmHg 60%
    15:00 +16°C° 0 mm 9 m/S 769 mmHg 61%
    16:00 +15°C° 0 mm 9 m/S 769 mmHg 65%
    17:00 +13°C° 0 mm 9 m/S 769 mmHg 69%
    18:00 +12°C° 0 mm 8 m/S 769 mmHg 73%
    19:00 +12°C° 0 mm 8 m/S 769 mmHg 74%
    20:00 +12°C° 0 mm 8 m/S 769 mmHg 75%
    21:00 +12°C° 0 mm 8 m/S 769 mmHg 76%
    22:00 +12°C° 0 mm 8 m/S 768 mmHg 76%
    23:00 +12°C° 0 mm 8 m/S 768 mmHg 76%

    27 September, Donnerstag

    Zeit Temperatur Niederschläge Wind Luftdruck Luftfeuchtigkeit
    00:00 +12°C° 0 mm 8 m/S 767 mmHg 77%
    01:00 +12°C° 0 mm 8 m/S 767 mmHg 76%
    02:00 +12°C° 0 mm 8 m/S 766 mmHg 76%
    03:00 +12°C° 0 mm 8 m/S 766 mmHg 76%
    04:00 +12°C° 0.1 mm 9 m/S 765 mmHg 77%
    05:00 +12°C° 0.1 mm 9 m/S 765 mmHg 79%
    06:00 +12°C° 0.1 mm 9 m/S 765 mmHg 80%
    07:00 +13°C° 0 mm 9 m/S 764 mmHg 79%
    08:00 +14°C° 0 mm 10 m/S 764 mmHg 77%
    09:00 +17°C° 0 mm 10 m/S 764 mmHg 76%
    10:00 +17°C° 0.1 mm 10 m/S 764 mmHg 77%
    11:00 +17°C° 0.1 mm 10 m/S 764 mmHg 79%
    12:00 +17°C° 0.1 mm 10 m/S 764 mmHg 80%
    13:00 +16°C° 0.3 mm 10 m/S 764 mmHg 82%
    14:00 +15°C° 0.3 mm 9 m/S 764 mmHg 85%
    15:00 +13°C° 0.3 mm 9 m/S 764 mmHg 87%
    16:00 +13°C° 0.2 mm 8 m/S 765 mmHg 86%
    17:00 +12°C° 0.2 mm 8 m/S 766 mmHg 84%
    18:00 +11°C° 0.2 mm 8 m/S 766 mmHg 82%
    19:00 +11°C° 0 mm 8 m/S 767 mmHg 81%
    20:00 +11°C° 0 mm 7 m/S 767 mmHg 80%
    21:00 +10°C° 0 mm 7 m/S 768 mmHg 80%
    22:00 +10°C° 0 mm 7 m/S 768 mmHg 80%
    23:00 +9°C° 0 mm 6 m/S 768 mmHg 80%
    Mehr zeigen